[{"OBJECT_NAME":"CYGFM04","OBJECT_ID":"2016-078B","EPOCH":"2026-09-11T15:22:46.806528","MEAN_MOTION":15.6655797,"ECCENTRICITY":0.0004209,"INCLINATION":34.9322,"RA_OF_ASC_NODE":9.3165,"ARG_OF_PERICENTER":315.5872,"MEAN_ANOMALY":44.4517,"EPHEMERIS_TYPE":0,"CLASSIFICATION_TYPE":"U","NORAD_CAT_ID":41885,"ELEMENT_SET_NO":999,"REV_AT_EPOCH":54254,"BSTAR":0.00030366998,"MEAN_MOTION_DOT":0.00032966,"MEAN_MOTION_DDOT":0},{"OBJECT_NAME":"CYGFM02","OBJECT_ID":"2016-078C","EPOCH":"2026-09-11T15:17:40.806240","MEAN_MOTION":15.71237494,"ECCENTRICITY":0.0004664,"INCLINATION":34.9406,"RA_OF_ASC_NODE":0.8739,"ARG_OF_PERICENTER":327.6009,"MEAN_ANOMALY":32.4433,"EPHEMERIS_TYPE":0,"CLASSIFICATION_TYPE":"U","NORAD_CAT_ID":41886,"ELEMENT_SET_NO":999,"REV_AT_EPOCH":54274,"BSTAR":0.00031970383,"MEAN_MOTION_DOT":0.00042182,"MEAN_MOTION_DDOT":0},{"OBJECT_NAME":"CYGFM01","OBJECT_ID":"2016-078D","EPOCH":"2026-09-11T19:00:22.255200","MEAN_MOTION":15.61258769,"ECCENTRICITY":0.00052016,"INCLINATION":34.9394,"RA_OF_ASC_NODE":45.7863,"ARG_OF_PERICENTER":260.8913,"MEAN_ANOMALY":99.1224,"EPHEMERIS_TYPE":0,"CLASSIFICATION_TYPE":"U","NORAD_CAT_ID":41887,"ELEMENT_SET_NO":999,"REV_AT_EPOCH":54223,"BSTAR":0.00028589047,"MEAN_MOTION_DOT":0.00025129,"MEAN_MOTION_DDOT":0},{"OBJECT_NAME":"CYGFM08","OBJECT_ID":"2016-078E","EPOCH":"2026-09-11T17:05:54.295008","MEAN_MOTION":15.64636744,"ECCENTRICITY":0.00060505,"INCLINATION":34.9435,"RA_OF_ASC_NODE":23.3253,"ARG_OF_PERICENTER":294.1036,"MEAN_ANOMALY":65.9057,"EPHEMERIS_TYPE":0,"CLASSIFICATION_TYPE":"U","NORAD_CAT_ID":41888,"ELEMENT_SET_NO":999,"REV_AT_EPOCH":54251,"BSTAR":0.00029920846,"MEAN_MOTION_DOT":0.00030067,"MEAN_MOTION_DDOT":0},{"OBJECT_NAME":"CYGFM07","OBJECT_ID":"2016-078G","EPOCH":"2026-09-11T15:58:32.186784","MEAN_MOTION":15.64757094,"ECCENTRICITY":0.00047704,"INCLINATION":34.9448,"RA_OF_ASC_NODE":11.8968,"ARG_OF_PERICENTER":311.0386,"MEAN_ANOMALY":48.9928,"EPHEMERIS_TYPE":0,"CLASSIFICATION_TYPE":"U","NORAD_CAT_ID":41890,"ELEMENT_SET_NO":999,"REV_AT_EPOCH":54253,"BSTAR":0.00029768909,"MEAN_MOTION_DOT":0.00030047,"MEAN_MOTION_DDOT":0},{"OBJECT_NAME":"CYGFM03","OBJECT_ID":"2016-078H","EPOCH":"2026-09-11T16:49:50.915136","MEAN_MOTION":15.64740068,"ECCENTRICITY":0.0004194,"INCLINATION":34.9407,"RA_OF_ASC_NODE":13.5762,"ARG_OF_PERICENTER":296.9468,"MEAN_ANOMALY":63.083,"EPHEMERIS_TYPE":0,"CLASSIFICATION_TYPE":"U","NORAD_CAT_ID":41891,"ELEMENT_SET_NO":999,"REV_AT_EPOCH":54251,"BSTAR":0.00029517456,"MEAN_MOTION_DOT":0.00029768,"MEAN_MOTION_DDOT":0},{"OBJECT_NAME":"FENGYUN 3D","OBJECT_ID":"2017-072A","EPOCH":"2026-09-12T04:23:53.149920","MEAN_MOTION":14.19754931,"ECCENTRICITY":0.0001951,"INCLINATION":99.0229,"RA_OF_ASC_NODE":231.2197,"ARG_OF_PERICENTER":127.9525,"MEAN_ANOMALY":232.1827,"EPHEMERIS_TYPE":0,"CLASSIFICATION_TYPE":"U","NORAD_CAT_ID":43010,"ELEMENT_SET_NO":999,"REV_AT_EPOCH":45733,"BSTAR":0.000046148,"MEAN_MOTION_DOT":5.1e-7,"MEAN_MOTION_DDOT":0},{"OBJECT_NAME":"NOAA 20 (JPSS-1)","OBJECT_ID":"2017-073A","EPOCH":"2026-09-12T02:55:46.460928","MEAN_MOTION":14.19525406,"ECCENTRICITY":0.0001607,"INCLINATION":98.781,"RA_OF_ASC_NODE":193.8252,"ARG_OF_PERICENTER":52.9635,"MEAN_ANOMALY":307.1688,"EPHEMERIS_TYPE":0,"CLASSIFICATION_TYPE":"U","NORAD_CAT_ID":43013,"ELEMENT_SET_NO":999,"REV_AT_EPOCH":45680,"BSTAR":0.000030176,"MEAN_MOTION_DOT":1.9e-7,"MEAN_MOTION_DDOT":0},{"OBJECT_NAME":"GOES 17","OBJECT_ID":"2018-022A","EPOCH":"2026-09-12T03:12:58.260960","MEAN_MOTION":1.00272399,"ECCENTRICITY":0.0000834,"INCLINATION":1.1553,"RA_OF_ASC_NODE":84.2471,"ARG_OF_PERICENTER":130.4475,"MEAN_ANOMALY":95.2021,"EPHEMERIS_TYPE":0,"CLASSIFICATION_TYPE":"U","NORAD_CAT_ID":43226,"ELEMENT_SET_NO":999,"REV_AT_EPOCH":3129,"BSTAR":0,"MEAN_MOTION_DOT":-0.00000197,"MEAN_MOTION_DDOT":0},{"OBJECT_NAME":"SENTINEL-3B","OBJECT_ID":"2018-039A","EPOCH":"2026-09-12T03:37:02.135424","MEAN_MOTION":14.2673673,"ECCENTRICITY":0.0001429,"INCLINATION":98.6285,"RA_OF_ASC_NODE":321.4222,"ARG_OF_PERICENTER":79.1773,"MEAN_ANOMALY":280.9568,"EPHEMERIS_TYPE":0,"CLASSIFICATION_TYPE":"U","NORAD_CAT_ID":43437,"ELEMENT_SET_NO":999,"REV_AT_EPOCH":43652,"BSTAR":0.000042431,"MEAN_MOTION_DOT":5.9e-7,"MEAN_MOTION_DDOT":0},{"OBJECT_NAME":"FENGYUN 2H","OBJECT_ID":"2018-050A","EPOCH":"2026-09-12T04:01:01.155072","MEAN_MOTION":1.00271983,"ECCENTRICITY":0.0002728,"INCLINATION":3.2491,"RA_OF_ASC_NODE":77.9814,"ARG_OF_PERICENTER":152.1786,"MEAN_ANOMALY":260.5857,"EPHEMERIS_TYPE":0,"CLASSIFICATION_TYPE":"U","NORAD_CAT_ID":43491,"ELEMENT_SET_NO":999,"REV_AT_EPOCH":3031,"BSTAR":0,"MEAN_MOTION_DOT":-0.00000143,"MEAN_MOTION_DDOT":0},{"OBJECT_NAME":"METOP-C","OBJECT_ID":"2018-087A","EPOCH":"2026-09-12T03:17:45.824352","MEAN_MOTION":14.2150989,"ECCENTRICITY":0.0000551,"INCLINATION":98.6958,"RA_OF_ASC_NODE":313.1474,"ARG_OF_PERICENTER":53.011,"MEAN_ANOMALY":307.1118,"EPHEMERIS_TYPE":0,"CLASSIFICATION_TYPE":"U","NORAD_CAT_ID":43689,"ELEMENT_SET_NO":999,"REV_AT_EPOCH":40718,"BSTAR":0.000047201,"MEAN_MOTION_DOT":6e-7,"MEAN_MOTION_DDOT":0},{"OBJECT_NAME":"GEO-KOMPSAT-2A","OBJECT_ID":"2018-100A","EPOCH":"2026-09-11T23:07:06.838176","MEAN_MOTION":1.00274303,"ECCENTRICITY":0.000182,"INCLINATION":0.0353,"RA_OF_ASC_NODE":17.3458,"ARG_OF_PERICENTER":99.0791,"MEAN_ANOMALY":349.5888,"EPHEMERIS_TYPE":0,"CLASSIFICATION_TYPE":"U","NORAD_CAT_ID":43823,"ELEMENT_SET_NO":999,"REV_AT_EPOCH":2850,"BSTAR":0,"MEAN_MOTION_DOT":-0.00000359,"MEAN_MOTION_DDOT":0},{"OBJECT_NAME":"METEOR-M2 2","OBJECT_ID":"2019-038A","EPOCH":"2026-09-12T05:00:41.025024","MEAN_MOTION":14.24385293,"ECCENTRICITY":0.0002162,"INCLINATION":98.9231,"RA_OF_ASC_NODE":243.8155,"ARG_OF_PERICENTER":104.2917,"MEAN_ANOMALY":255.8501,"EPHEMERIS_TYPE":0,"CLASSIFICATION_TYPE":"U","NORAD_CAT_ID":44387,"ELEMENT_SET_NO":999,"REV_AT_EPOCH":37368,"BSTAR":-0.0000038888,"MEAN_MOTION_DOT":-5.5e-7,"MEAN_MOTION_DDOT":0},{"OBJECT_NAME":"FENGYUN 3E","OBJECT_ID":"2021-062A","EPOCH":"2026-09-12T05:28:32.750976","MEAN_MOTION":14.19909413,"ECCENTRICITY":0.0001545,"INCLINATION":98.7539,"RA_OF_ASC_NODE":257.6847,"ARG_OF_PERICENTER":154.4322,"MEAN_ANOMALY":205.6931,"EPHEMERIS_TYPE":0,"CLASSIFICATION_TYPE":"U","NORAD_CAT_ID":49008,"ELEMENT_SET_NO":999,"REV_AT_EPOCH":26893,"BSTAR":-0.0001275,"MEAN_MOTION_DOT":-0.00000315,"MEAN_MOTION_DDOT":0},{"OBJECT_NAME":"GOES 18","OBJECT_ID":"2022-021A","EPOCH":"2026-09-12T02:59:22.066080","MEAN_MOTION":1.00273283,"ECCENTRICITY":0.0000531,"INCLINATION":0.0403,"RA_OF_ASC_NODE":314.5583,"ARG_OF_PERICENTER":276.0642,"MEAN_ANOMALY":28.364,"EPHEMERIS_TYPE":0,"CLASSIFICATION_TYPE":"U","NORAD_CAT_ID":51850,"ELEMENT_SET_NO":999,"REV_AT_EPOCH":746,"BSTAR":0,"MEAN_MOTION_DOT":8.1e-7,"MEAN_MOTION_DDOT":0},{"OBJECT_NAME":"NOAA 21 (JPSS-2)","OBJECT_ID":"2022-150A","EPOCH":"2026-09-12T03:40:56.085024","MEAN_MOTION":14.19548857,"ECCENTRICITY":0.0001231,"INCLINATION":98.7094,"RA_OF_ASC_NODE":192.4906,"ARG_OF_PERICENTER":347.6968,"MEAN_ANOMALY":12.4178,"EPHEMERIS_TYPE":0,"CLASSIFICATION_TYPE":"U","NORAD_CAT_ID":54234,"ELEMENT_SET_NO":999,"REV_AT_EPOCH":19888,"BSTAR":0.000032696,"MEAN_MOTION_DOT":2.5e-7,"MEAN_MOTION_DDOT":0},{"OBJECT_NAME":"METEOSAT-12 (MTG-I1)","OBJECT_ID":"2022-170C","EPOCH":"2026-09-12T03:38:18.333312","MEAN_MOTION":1.00271028,"ECCENTRICITY":0.0003744,"INCLINATION":0.7779,"RA_OF_ASC_NODE":26.1192,"ARG_OF_PERICENTER":86.8011,"MEAN_ANOMALY":292.3597,"EPHEMERIS_TYPE":0,"CLASSIFICATION_TYPE":"U","NORAD_CAT_ID":54743,"ELEMENT_SET_NO":999,"REV_AT_EPOCH":1385,"BSTAR":0,"MEAN_MOTION_DOT":-2.3e-7,"MEAN_MOTION_DDOT":0},{"OBJECT_NAME":"TIANMU-1 03","OBJECT_ID":"2023-039A","EPOCH":"2026-09-12T05:27:56.507040","MEAN_MOTION":15.49539927,"ECCENTRICITY":0.0003533,"INCLINATION":97.5261,"RA_OF_ASC_NODE":72.7832,"ARG_OF_PERICENTER":123.2532,"MEAN_ANOMALY":236.9058,"EPHEMERIS_TYPE":0,"CLASSIFICATION_TYPE":"U","NORAD_CAT_ID":55973,"ELEMENT_SET_NO":999,"REV_AT_EPOCH":19430,"BSTAR":0.00023817,"MEAN_MOTION_DOT":0.00013042,"MEAN_MOTION_DDOT":0},{"OBJECT_NAME":"TIANMU-1 04","OBJECT_ID":"2023-039B","EPOCH":"2026-09-12T04:21:03.945888","MEAN_MOTION":15.50221129,"ECCENTRICITY":0.0004712,"INCLINATION":97.5193,"RA_OF_ASC_NODE":71.9019,"ARG_OF_PERICENTER":120.1609,"MEAN_ANOMALY":240.011,"EPHEMERIS_TYPE":0,"CLASSIFICATION_TYPE":"U","NORAD_CAT_ID":55974,"ELEMENT_SET_NO":999,"REV_AT_EPOCH":19431,"BSTAR":0.00023671,"MEAN_MOTION_DOT":0.0001328,"MEAN_MOTION_DDOT":0},{"OBJECT_NAME":"TIANMU-1 05","OBJECT_ID":"2023-039C","EPOCH":"2026-09-12T05:06:40.434336","MEAN_MOTION":15.49451747,"ECCENTRICITY":0.0003337,"INCLINATION":97.5244,"RA_OF_ASC_NODE":72.3515,"ARG_OF_PERICENTER":139.3236,"MEAN_ANOMALY":220.8264,"EPHEMERIS_TYPE":0,"CLASSIFICATION_TYPE":"U","NORAD_CAT_ID":55975,"ELEMENT_SET_NO":999,"REV_AT_EPOCH":19428,"BSTAR":0.00022988,"MEAN_MOTION_DOT":0.00012545,"MEAN_MOTION_DDOT":0},{"OBJECT_NAME":"TIANMU-1 06","OBJECT_ID":"2023-039D","EPOCH":"2026-09-12T04:34:49.656000","MEAN_MOTION":15.50093489,"ECCENTRICITY":0.0003506,"INCLINATION":97.5245,"RA_OF_ASC_NODE":73.0547,"ARG_OF_PERICENTER":131.6818,"MEAN_ANOMALY":228.4734,"EPHEMERIS_TYPE":0,"CLASSIFICATION_TYPE":"U","NORAD_CAT_ID":55976,"ELEMENT_SET_NO":999,"REV_AT_EPOCH":19431,"BSTAR":0.00023441,"MEAN_MOTION_DOT":0.00013088,"MEAN_MOTION_DDOT":0},{"OBJECT_NAME":"FENGYUN 3G","OBJECT_ID":"2023-055A","EPOCH":"2026-09-12T03:46:52.110048","MEAN_MOTION":15.53505093,"ECCENTRICITY":0.0011941,"INCLINATION":49.9908,"RA_OF_ASC_NODE":257.5911,"ARG_OF_PERICENTER":20.3801,"MEAN_ANOMALY":339.764,"EPHEMERIS_TYPE":0,"CLASSIFICATION_TYPE":"U","NORAD_CAT_ID":56232,"ELEMENT_SET_NO":999,"REV_AT_EPOCH":19352,"BSTAR":0.00031653,"MEAN_MOTION_DOT":0.00020146,"MEAN_MOTION_DDOT":0},{"OBJECT_NAME":"METEOR-M2 3","OBJECT_ID":"2023-091A","EPOCH":"2026-09-12T05:21:50.042304","MEAN_MOTION":14.24052373,"ECCENTRICITY":0.0002788,"INCLINATION":98.6,"RA_OF_ASC_NODE":308.3838,"ARG_OF_PERICENTER":279.5207,"MEAN_ANOMALY":80.5656,"EPHEMERIS_TYPE":0,"CLASSIFICATION_TYPE":"U","NORAD_CAT_ID":57166,"ELEMENT_SET_NO":999,"REV_AT_EPOCH":16690,"BSTAR":0.000018068,"MEAN_MOTION_DOT":-2e-8,"MEAN_MOTION_DDOT":0}]